^^
Station Historical Data
Daily Summary for April 24, 2017 Units:  Both    English   Metric
« Previous Day
Next Day »
Daily Weekly Monthly Yearly Custom
  High: Low: Average:
Temperature: 72.1 °F /  22.3 °C 47.1 °F /  8.4 °C 58.7 °F /  14.8 °C
Dew Point: 55.4 °F /  13 °C 45.5 °F /  7.5 °C 50.4 °F /  10.2 °C
Humidity: 97% 48% 76%
Wind Speed: 11.0mph /  17.7km/h - 1.3mph /  2.1km/h
Wind Gust: 15.0mph /  24.1km/h - -
Wind- - ESE
Pressure: 30.07 in /  1018.2 hPa 29.97 in /  1014.8 hPa -
Precipitation: 0.01 in /  0.25 mm    
Historical Graphs
 
 
Tabular Data for April 24, 2017
Time Temperature Dew Point Pressure Wind Wind Speed Wind Gust Humidity Rainfall Rate (Hourly) solar Conditions
00:02 49.6 °F /  9.8 °C 47.7 °F /  8.7 °C 30.01in /  1016.1hPa Calm   1.0mph /  1.6km/h 93% 0.00in /  0mm 0.0 W/m2
00:08 49.6 °F /  9.8 °C 47.7 °F /  8.7 °C 30.01in /  1016.1hPa Calm     93% 0.00in /  0mm 0.0 W/m2
00:14 49.6 °F /  9.8 °C 47.7 °F /  8.7 °C 30.01in /  1016.1hPa Calm     93% 0.00in /  0mm 0.0 W/m2
00:20 49.5 °F /  9.7 °C 47.5 °F /  8.6 °C 30.01in /  1016.1hPa Calm     93% 0.00in /  0mm 0.0 W/m2
00:26 49.5 °F /  9.7 °C 47.5 °F /  8.6 °C 30.01in /  1016.1hPa Calm     93% 0.00in /  0mm 0.0 W/m2
00:33 49.5 °F /  9.7 °C 47.5 °F /  8.6 °C 30.01in /  1016.1hPa Calm     93% 0.00in /  0mm 0.0 W/m2
00:39 49.5 °F /  9.7 °C 47.5 °F /  8.6 °C 30.01in /  1016.1hPa Calm     93% 0.00in /  0mm 0.0 W/m2
00:45 49.5 °F /  9.7 °C 47.8 °F /  8.8 °C 30.01in /  1016.1hPa Calm     94% 0.00in /  0mm 0.0 W/m2
00:51 49.5 °F /  9.7 °C 47.8 °F /  8.8 °C 30.01in /  1016.1hPa Calm     94% 0.00in /  0mm 0.0 W/m2
00:57 49.5 °F /  9.7 °C 47.8 °F /  8.8 °C 30.01in /  1016.1hPa Calm     94% 0.00in /  0mm 0.0 W/m2
01:03 49.5 °F /  9.7 °C 47.8 °F /  8.8 °C 30.01in /  1016.1hPa Calm     94% 0.00in /  0mm 0.0 W/m2
01:09 49.6 °F /  9.8 °C 48.0 °F /  8.9 °C 30.01in /  1016.1hPa Calm     94% 0.00in /  0mm 0.0 W/m2
01:16 49.6 °F /  9.8 °C 47.7 °F /  8.7 °C 30.01in /  1016.1hPa Calm   1.0mph /  1.6km/h 93% 0.00in /  0mm 0.0 W/m2
01:22 49.6 °F /  9.8 °C 47.7 °F /  8.7 °C 30.01in /  1016.1hPa Calm   2.0mph /  3.2km/h 93% 0.00in /  0mm 0.0 W/m2
01:28 49.5 °F /  9.7 °C 47.5 °F /  8.6 °C 30.00in /  1015.8hPa Calm   1.0mph /  1.6km/h 93% 0.00in /  0mm 0.0 W/m2
01:34 49.5 °F /  9.7 °C 47.5 °F /  8.6 °C 30.00in /  1015.8hPa Calm   2.0mph /  3.2km/h 93% 0.00in /  0mm 0.0 W/m2
01:40 49.6 °F /  9.8 °C 47.7 °F /  8.7 °C 30.01in /  1016.1hPa Calm     93% 0.00in /  0mm 0.0 W/m2
01:46 49.6 °F /  9.8 °C 47.7 °F /  8.7 °C 30.00in /  1015.8hPa NE 0.9mph /  1.4km/h 1.0mph /  1.6km/h 93% 0.00in /  0mm 0.0 W/m2
01:52 49.6 °F /  9.8 °C 47.7 °F /  8.7 °C 30.00in /  1015.8hPa Calm   1.0mph /  1.6km/h 93% 0.00in /  0mm 0.0 W/m2
01:59 49.6 °F /  9.8 °C 47.7 °F /  8.7 °C 30.00in /  1015.8hPa Calm   2.0mph /  3.2km/h 93% 0.00in /  0mm 0.0 W/m2
02:05 49.6 °F /  9.8 °C 47.7 °F /  8.7 °C 30.00in /  1015.8hPa Calm   2.0mph /  3.2km/h 93% 0.00in /  0mm 0.0 W/m2
02:11 49.6 °F /  9.8 °C 47.7 °F /  8.7 °C 30.00in /  1015.8hPa Calm     93% 0.00in /  0mm 0.0 W/m2
02:17 49.5 °F /  9.7 °C 47.5 °F /  8.6 °C 30.00in /  1015.8hPa Calm     93% 0.00in /  0mm 0.0 W/m2
02:23 49.5 °F /  9.7 °C 47.5 °F /  8.6 °C 30.00in /  1015.8hPa Calm     93% 0.00in /  0mm 0.0 W/m2
02:29 49.5 °F /  9.7 °C 47.5 °F /  8.6 °C 30.00in /  1015.8hPa Calm     93% 0.00in /  0mm 0.0 W/m2
02:36 49.3 °F /  9.6 °C 47.3 °F /  8.5 °C 30.01in /  1016.1hPa Calm     93% 0.00in /  0mm 0.0 W/m2
02:42 49.3 °F /  9.6 °C 47.3 °F /  8.5 °C 30.00in /  1015.8hPa Calm     93% 0.00in /  0mm 0.0 W/m2
02:48 48.9 °F /  9.4 °C 46.9 °F /  8.3 °C 30.01in /  1016.1hPa Calm     93% 0.00in /  0mm 0.0 W/m2
02:54 48.7 °F /  9.3 °C 46.8 °F /  8.2 °C 30.01in /  1016.1hPa Calm     93% 0.00in /  0mm 0.0 W/m2
03:00 48.7 °F /  9.3 °C 46.8 °F /  8.2 °C 30.01in /  1016.1hPa Calm     93% 0.00in /  0mm 0.0 W/m2
03:06 48.6 °F /  9.2 °C 46.6 °F /  8.1 °C 30.01in /  1016.1hPa Calm     93% 0.00in /  0mm 0.0 W/m2
03:12 48.6 °F /  9.2 °C 46.6 °F /  8.1 °C 30.01in /  1016.1hPa Calm     93% 0.00in /  0mm 0.0 W/m2
03:19 48.4 °F /  9.1 °C 46.4 °F /  8 °C 30.01in /  1016.1hPa Calm   1.0mph /  1.6km/h 93% 0.00in /  0mm 0.0 W/m2
03:25 48.4 °F /  9.1 °C 46.4 °F /  8 °C 30.01in /  1016.1hPa Calm     93% 0.00in /  0mm 0.0 W/m2
03:31 48.4 °F /  9.1 °C 46.8 °F /  8.2 °C 30.01in /  1016.1hPa Calm     94% 0.00in /  0mm 0.0 W/m2
03:37 48.4 °F /  9.1 °C 46.8 °F /  8.2 °C 30.01in /  1016.1hPa Calm   1.0mph /  1.6km/h 94% 0.00in /  0mm 0.0 W/m2
03:43 48.2 °F /  9 °C 46.6 °F /  8.1 °C 30.01in /  1016.1hPa Calm     94% 0.00in /  0mm 0.0 W/m2
03:49 48.2 °F /  9 °C 46.6 °F /  8.1 °C 30.01in /  1016.1hPa Calm     94% 0.00in /  0mm 0.0 W/m2
03:55 48.0 °F /  8.9 °C 46.4 °F /  8 °C 30.01in /  1016.1hPa Calm     94% 0.00in /  0mm 0.0 W/m2
04:02 48.0 °F /  8.9 °C 46.0 °F /  7.8 °C 30.01in /  1016.1hPa Calm     93% 0.00in /  0mm 0.0 W/m2
04:08 47.8 °F /  8.8 °C 46.2 °F /  7.9 °C 30.01in /  1016.1hPa Calm     94% 0.00in /  0mm 0.0 W/m2
04:14 47.8 °F /  8.8 °C 45.9 °F /  7.7 °C 30.01in /  1016.1hPa Calm     93% 0.00in /  0mm 0.0 W/m2
04:20 47.7 °F /  8.7 °C 45.7 °F /  7.6 °C 30.01in /  1016.1hPa Calm     93% 0.00in /  0mm 0.0 W/m2
04:26 47.7 °F /  8.7 °C 46.0 °F /  7.8 °C 30.01in /  1016.1hPa Calm     94% 0.00in /  0mm 0.0 W/m2
04:32 47.5 °F /  8.6 °C 45.9 °F /  7.7 °C 30.02in /  1016.5hPa Calm     94% 0.00in /  0mm 0.0 W/m2
04:39 47.5 °F /  8.6 °C 45.9 °F /  7.7 °C 30.02in /  1016.5hPa Calm     94% 0.00in /  0mm 0.0 W/m2
04:45 47.5 °F /  8.6 °C 45.9 °F /  7.7 °C 30.02in /  1016.5hPa Calm     94% 0.00in /  0mm 0.0 W/m2
04:51 47.5 °F /  8.6 °C 45.9 °F /  7.7 °C 30.02in /  1016.5hPa Calm     94% 0.00in /  0mm 0.0 W/m2
04:57 47.5 °F /  8.6 °C 45.9 °F /  7.7 °C 30.02in /  1016.5hPa Calm     94% 0.00in /  0mm 0.0 W/m2
05:03 47.5 °F /  8.6 °C 45.9 °F /  7.7 °C 30.02in /  1016.5hPa Calm     94% 0.00in /  0mm 0.0 W/m2
05:09 47.3 °F /  8.5 °C 45.7 °F /  7.6 °C 30.02in /  1016.5hPa Calm     94% 0.00in /  0mm 0.0 W/m2
05:15 47.3 °F /  8.5 °C 45.7 °F /  7.6 °C 30.02in /  1016.5hPa Calm     94% 0.00in /  0mm 0.0 W/m2
05:22 47.3 °F /  8.5 °C 45.7 °F /  7.6 °C 30.02in /  1016.5hPa Calm   2.0mph /  3.2km/h 94% 0.00in /  0mm 0.0 W/m2
05:28 47.5 °F /  8.6 °C 46.0 °F /  7.8 °C 30.02in /  1016.5hPa Calm     95% 0.00in /  0mm 0.0 W/m2
05:34 47.5 °F /  8.6 °C 45.9 °F /  7.7 °C 30.02in /  1016.5hPa Calm     94% 0.01in /  0.25mm 0.0 W/m2
05:42 47.5 °F /  8.6 °C 46.0 °F /  7.8 °C 30.02in /  1016.5hPa East 0.9mph /  1.4km/h 1.0mph /  1.6km/h 95% 0.01in /  0.25mm 0.0 W/m2
05:48 47.5 °F /  8.6 °C 46.0 °F /  7.8 °C 30.03in /  1016.8hPa Calm     95% 0.01in /  0.25mm 0.0 W/m2
05:54 47.5 °F /  8.6 °C 46.0 °F /  7.8 °C 30.03in /  1016.8hPa Calm     95% 0.01in /  0.25mm 0.0 W/m2
06:03 47.5 °F /  8.6 °C 46.0 °F /  7.8 °C 30.03in /  1016.8hPa Calm     95% 0.01in /  0.25mm 0.0 W/m2
06:09 47.5 °F /  8.6 °C 46.0 °F /  7.8 °C 30.03in /  1016.8hPa Calm     95% 0.01in /  0.25mm 0.0 W/m2
06:15 47.5 °F /  8.6 °C 46.0 °F /  7.8 °C 30.04in /  1017.2hPa Calm     95% 0.01in /  0.25mm 5.0 W/m2
06:21 47.1 °F /  8.4 °C 45.5 °F /  7.5 °C 30.04in /  1017.2hPa Calm     94% 0.01in /  0.25mm 7.0 W/m2
06:27 47.1 °F /  8.4 °C 45.5 °F /  7.5 °C 30.04in /  1017.2hPa Calm     94% 0.01in /  0.25mm 11.0 W/m2
06:33 47.1 °F /  8.4 °C 45.5 °F /  7.5 °C 30.04in /  1017.2hPa Calm     94% 0.00in /  0mm 11.0 W/m2
06:39 47.1 °F /  8.4 °C 45.7 °F /  7.6 °C 30.04in /  1017.2hPa Calm     95% 0.00in /  0mm 12.0 W/m2
06:45 47.1 °F /  8.4 °C 45.7 °F /  7.6 °C 30.05in /  1017.5hPa Calm     95% 0.00in /  0mm 14.0 W/m2
06:51 47.1 °F /  8.4 °C 45.7 °F /  7.6 °C 30.05in /  1017.5hPa Calm     95% 0.00in /  0mm 16.0 W/m2
06:58 47.3 °F /  8.5 °C 45.9 °F /  7.7 °C 30.05in /  1017.5hPa Calm     95% 0.00in /  0mm 16.0 W/m2
07:04 47.7 °F /  8.7 °C 46.6 °F /  8.1 °C 30.05in /  1017.5hPa Calm     96% 0.00in /  0mm 18.0 W/m2
07:10 48.4 °F /  9.1 °C 47.3 °F /  8.5 °C 30.05in /  1017.5hPa Calm     96% 0.00in /  0mm 19.0 W/m2
07:16 48.7 °F /  9.3 °C 47.7 °F /  8.7 °C 30.05in /  1017.5hPa Calm     96% 0.00in /  0mm 21.0 W/m2
07:22 49.3 °F /  9.6 °C 48.2 °F /  9 °C 30.05in /  1017.5hPa Calm     96% 0.00in /  0mm 21.0 W/m2
07:28 49.5 °F /  9.7 °C 48.4 °F /  9.1 °C 30.05in /  1017.5hPa Calm     96% 0.00in /  0mm 21.0 W/m2
07:34 50.2 °F /  10.1 °C 49.1 °F /  9.5 °C 30.06in /  1017.8hPa Calm     96% 0.00in /  0mm 23.0 W/m2
07:40 50.7 °F /  10.4 °C 49.6 °F /  9.8 °C 30.05in /  1017.5hPa Calm     96% 0.00in /  0mm 25.0 W/m2
07:47 51.6 °F /  10.9 °C 50.5 °F /  10.3 °C 30.06in /  1017.8hPa Calm     96% 0.00in /  0mm 26.0 W/m2
07:53 52.5 °F /  11.4 °C 51.6 °F /  10.9 °C 30.06in /  1017.8hPa Calm     97% 0.00in /  0mm 25.0 W/m2
07:59 53.4 °F /  11.9 °C 52.5 °F /  11.4 °C 30.06in /  1017.8hPa NNE 2.0mph /  3.2km/h 5.0mph /  8km/h 97% 0.00in /  0mm 25.0 W/m2
08:05 54.1 °F /  12.3 °C 53.2 °F /  11.8 °C 30.06in /  1017.8hPa Calm   5.0mph /  8km/h 97% 0.00in /  0mm 26.0 W/m2
08:11 54.7 °F /  12.6 °C 53.8 °F /  12.1 °C 30.06in /  1017.8hPa Calm   3.0mph /  4.8km/h 97% 0.00in /  0mm 26.0 W/m2
08:17 55.0 °F /  12.8 °C 54.1 °F /  12.3 °C 30.06in /  1017.8hPa Calm   5.0mph /  8km/h 97% 0.00in /  0mm 26.0 W/m2
08:24 55.6 °F /  13.1 °C 54.1 °F /  12.3 °C 30.06in /  1017.8hPa NNE 2.0mph /  3.2km/h 5.0mph /  8km/h 95% 0.00in /  0mm 28.0 W/m2
08:30 56.1 °F /  13.4 °C 54.1 °F /  12.3 °C 30.06in /  1017.8hPa NNE 2.0mph /  3.2km/h 4.0mph /  6.4km/h 93% 0.00in /  0mm 434.0 W/m2
08:36 57.0 °F /  13.9 °C 54.5 °F /  12.5 °C 30.06in /  1017.8hPa ENE 2.9mph /  4.7km/h 8.0mph /  12.9km/h 91% 0.00in /  0mm 454.0 W/m2
08:42 58.1 °F /  14.5 °C 54.3 °F /  12.4 °C 30.06in /  1017.8hPa NNE 2.9mph /  4.7km/h 6.0mph /  9.7km/h 87% 0.00in /  0mm 480.0 W/m2
08:48 59.0 °F /  15 °C 53.8 °F /  12.1 °C 30.06in /  1017.8hPa ENE 2.0mph /  3.2km/h 5.0mph /  8km/h 83% 0.00in /  0mm 517.0 W/m2
08:54 59.7 °F /  15.4 °C 54.1 °F /  12.3 °C 30.06in /  1017.8hPa ENE 2.9mph /  4.7km/h 5.0mph /  8km/h 82% 0.00in /  0mm 561.0 W/m2
09:00 60.6 °F /  15.9 °C 55.0 °F /  12.8 °C 30.06in /  1017.8hPa ENE 2.9mph /  4.7km/h 5.0mph /  8km/h 82% 0.00in /  0mm 601.0 W/m2
09:07 61.3 °F /  16.3 °C 55.4 °F /  13 °C 30.06in /  1017.8hPa NE 4.0mph /  6.4km/h 4.0mph /  6.4km/h 81% 0.00in /  0mm 643.0 W/m2
09:13 62.2 °F /  16.8 °C 54.9 °F /  12.7 °C 30.06in /  1017.8hPa NNE 2.9mph /  4.7km/h 4.0mph /  6.4km/h 77% 0.00in /  0mm 656.0 W/m2
09:19 63.0 °F /  17.2 °C 54.1 °F /  12.3 °C 30.07in /  1018.2hPa NNE 2.9mph /  4.7km/h 6.0mph /  9.7km/h 73% 0.00in /  0mm 246.0 W/m2
09:25 63.3 °F /  17.4 °C 54.5 °F /  12.5 °C 30.06in /  1017.8hPa NE 2.0mph /  3.2km/h 4.0mph /  6.4km/h 73% 0.00in /  0mm 267.0 W/m2
09:31 63.7 °F /  17.6 °C 53.2 °F /  11.8 °C 30.06in /  1017.8hPa North 2.9mph /  4.7km/h 3.0mph /  4.8km/h 69% 0.00in /  0mm 190.0 W/m2
09:37 63.7 °F /  17.6 °C 53.2 °F /  11.8 °C 30.07in /  1018.2hPa Calm   3.0mph /  4.8km/h 69% 0.00in /  0mm 264.0 W/m2
09:43 63.3 °F /  17.4 °C 53.1 °F /  11.7 °C 30.07in /  1018.2hPa WNW 0.9mph /  1.4km/h 1.0mph /  1.6km/h 69% 0.00in /  0mm 288.0 W/m2
09:50 63.5 °F /  17.5 °C 54.0 °F /  12.2 °C 30.06in /  1017.8hPa North 0.9mph /  1.4km/h 3.0mph /  4.8km/h 71% 0.00in /  0mm 190.0 W/m2
09:55 63.3 °F /  17.4 °C 53.4 °F /  11.9 °C 30.06in /  1017.8hPa NNE 2.9mph /  4.7km/h 4.0mph /  6.4km/h 70% 0.00in /  0mm 171.0 W/m2
10:02 63.3 °F /  17.4 °C 52.5 °F /  11.4 °C 30.06in /  1017.8hPa North 0.9mph /  1.4km/h 7.0mph /  11.3km/h 68% 0.00in /  0mm 176.0 W/m2
10:08 63.7 °F /  17.6 °C 52.9 °F /  11.6 °C 30.06in /  1017.8hPa West 0.9mph /  1.4km/h 4.0mph /  6.4km/h 68% 0.00in /  0mm 889.0 W/m2
10:14 64.0 °F /  17.8 °C 53.2 °F /  11.8 °C 30.06in /  1017.8hPa Calm   1.0mph /  1.6km/h 68% 0.00in /  0mm 227.0 W/m2
10:20 64.9 °F /  18.3 °C 53.8 °F /  12.1 °C 30.06in /  1017.8hPa North 2.9mph /  4.7km/h 7.0mph /  11.3km/h 67% 0.00in /  0mm 925.0 W/m2
10:26 66.0 °F /  18.9 °C 53.4 °F /  11.9 °C 30.06in /  1017.8hPa WNW 2.9mph /  4.7km/h 6.0mph /  9.7km/h 64% 0.00in /  0mm 898.0 W/m2
10:32 66.6 °F /  19.2 °C 53.6 °F /  12 °C 30.06in /  1017.8hPa Calm   4.0mph /  6.4km/h 63% 0.00in /  0mm 185.0 W/m2
10:39 66.6 °F /  19.2 °C 53.6 °F /  12 °C 30.06in /  1017.8hPa Calm     63% 0.00in /  0mm 269.0 W/m2
10:45 66.0 °F /  18.9 °C 54.0 °F /  12.2 °C 30.05in /  1017.5hPa NW 0.9mph /  1.4km/h 5.0mph /  8km/h 65% 0.00in /  0mm 193.0 W/m2
10:51 66.0 °F /  18.9 °C 53.4 °F /  11.9 °C 30.05in /  1017.5hPa NW 2.0mph /  3.2km/h 5.0mph /  8km/h 64% 0.00in /  0mm 364.0 W/m2
10:57 66.7 °F /  19.3 °C 54.1 °F /  12.3 °C 30.05in /  1017.5hPa WNW 0.9mph /  1.4km/h 3.0mph /  4.8km/h 64% 0.00in /  0mm 339.0 W/m2
11:03 67.5 °F /  19.7 °C 52.2 °F /  11.2 °C 30.05in /  1017.5hPa WSW 0.9mph /  1.4km/h 10.0mph /  16.1km/h 58% 0.00in /  0mm 926.0 W/m2
11:09 68.4 °F /  20.2 °C 52.5 °F /  11.4 °C 30.04in /  1017.2hPa NE 2.9mph /  4.7km/h 7.0mph /  11.3km/h 57% 0.00in /  0mm 918.0 W/m2
11:15 69.1 °F /  20.6 °C 53.2 °F /  11.8 °C 30.04in /  1017.2hPa Calm   1.0mph /  1.6km/h 57% 0.00in /  0mm 956.0 W/m2
11:21 69.3 °F /  20.7 °C 53.8 °F /  12.1 °C 30.04in /  1017.2hPa Calm   2.0mph /  3.2km/h 58% 0.00in /  0mm 181.0 W/m2
11:27 68.7 °F /  20.4 °C 53.8 °F /  12.1 °C 30.04in /  1017.2hPa North 6.0mph /  9.7km/h 6.0mph /  9.7km/h 59% 0.00in /  0mm 271.0 W/m2
11:33 68.2 °F /  20.1 °C 54.7 °F /  12.6 °C 30.03in /  1016.8hPa Calm   7.0mph /  11.3km/h 62% 0.00in /  0mm 237.0 W/m2
11:39 67.6 °F /  19.8 °C 54.7 °F /  12.6 °C 30.03in /  1016.8hPa NNE 4.0mph /  6.4km/h 7.0mph /  11.3km/h 63% 0.00in /  0mm 410.0 W/m2
11:45 66.9 °F /  19.4 °C 54.0 °F /  12.2 °C 30.03in /  1016.8hPa NNW 2.9mph /  4.7km/h 9.0mph /  14.5km/h 63% 0.00in /  0mm 434.0 W/m2
11:51 66.9 °F /  19.4 °C 54.3 °F /  12.4 °C 30.03in /  1016.8hPa NNE 4.0mph /  6.4km/h 9.0mph /  14.5km/h 64% 0.00in /  0mm 601.0 W/m2
11:57 67.5 °F /  19.7 °C 54.5 °F /  12.5 °C 30.02in /  1016.5hPa NNW 6.9mph /  11.1km/h 10.0mph /  16.1km/h 63% 0.00in /  0mm 882.0 W/m2
12:03 68.2 °F /  20.1 °C 54.7 °F /  12.6 °C 30.02in /  1016.5hPa NNE 6.9mph /  11.1km/h 7.0mph /  11.3km/h 62% 0.00in /  0mm 895.0 W/m2
12:10 68.7 °F /  20.4 °C 53.8 °F /  12.1 °C 30.02in /  1016.5hPa North 2.9mph /  4.7km/h 7.0mph /  11.3km/h 59% 0.00in /  0mm 846.0 W/m2
12:16 69.4 °F /  20.8 °C 54.0 °F /  12.2 °C 30.02in /  1016.5hPa NNW 4.9mph /  7.9km/h 9.0mph /  14.5km/h 58% 0.00in /  0mm 837.0 W/m2
12:22 69.6 °F /  20.9 °C 54.7 °F /  12.6 °C 30.01in /  1016.1hPa NNW 2.0mph /  3.2km/h 4.0mph /  6.4km/h 59% 0.00in /  0mm 844.0 W/m2
12:28 70.0 °F /  21.1 °C 54.5 °F /  12.5 °C 30.01in /  1016.1hPa NW 2.9mph /  4.7km/h 6.0mph /  9.7km/h 58% 0.00in /  0mm 838.0 W/m2
12:34 70.3 °F /  21.3 °C 54.3 °F /  12.4 °C 30.01in /  1016.1hPa WNW 4.9mph /  7.9km/h 7.0mph /  11.3km/h 57% 0.00in /  0mm 867.0 W/m2
12:40 70.5 °F /  21.4 °C 53.6 °F /  12 °C 30.01in /  1016.1hPa North 6.0mph /  9.7km/h 8.0mph /  12.9km/h 55% 0.00in /  0mm 870.0 W/m2
12:46 70.5 °F /  21.4 °C 53.6 °F /  12 °C 30.00in /  1015.8hPa NE 4.9mph /  7.9km/h 7.0mph /  11.3km/h 55% 0.00in /  0mm 865.0 W/m2
12:52 70.7 °F /  21.5 °C 53.8 °F /  12.1 °C 30.00in /  1015.8hPa NW 2.9mph /  4.7km/h 6.0mph /  9.7km/h 55% 0.00in /  0mm 868.0 W/m2
12:58 71.1 °F /  21.7 °C 54.1 °F /  12.3 °C 30.00in /  1015.8hPa West 2.0mph /  3.2km/h 10.0mph /  16.1km/h 55% 0.00in /  0mm 874.0 W/m2
13:05 71.2 °F /  21.8 °C 54.3 °F /  12.4 °C 29.99in /  1015.5hPa NNE 4.0mph /  6.4km/h 4.0mph /  6.4km/h 55% 0.00in /  0mm 863.0 W/m2
13:11 71.2 °F /  21.8 °C 53.8 °F /  12.1 °C 29.99in /  1015.5hPa SW 4.0mph /  6.4km/h 6.0mph /  9.7km/h 54% 0.00in /  0mm 905.0 W/m2
13:17 71.2 °F /  21.8 °C 53.8 °F /  12.1 °C 29.99in /  1015.5hPa WSW 2.0mph /  3.2km/h 11.0mph /  17.7km/h 54% 0.00in /  0mm 909.0 W/m2
13:23 71.6 °F /  22 °C 54.1 °F /  12.3 °C 29.98in /  1015.1hPa North 0.9mph /  1.4km/h 5.0mph /  8km/h 54% 0.00in /  0mm 891.0 W/m2
13:29 72.0 °F /  22.2 °C 52.3 °F /  11.3 °C 29.98in /  1015.1hPa NNW 2.0mph /  3.2km/h 7.0mph /  11.3km/h 50% 0.00in /  0mm 904.0 W/m2
13:35 72.1 °F /  22.3 °C 53.1 °F /  11.7 °C 29.98in /  1015.1hPa NNE 0.9mph /  1.4km/h 2.0mph /  3.2km/h 51% 0.00in /  0mm 898.0 W/m2
13:41 72.0 °F /  22.2 °C 51.8 °F /  11 °C 29.98in /  1015.1hPa Calm   2.0mph /  3.2km/h 49% 0.00in /  0mm 234.0 W/m2
13:47 71.4 °F /  21.9 °C 52.3 °F /  11.3 °C 29.98in /  1015.1hPa NW 0.9mph /  1.4km/h 3.0mph /  4.8km/h 51% 0.00in /  0mm 288.0 W/m2
13:54 71.2 °F /  21.8 °C 52.7 °F /  11.5 °C 29.97in /  1014.8hPa North 2.9mph /  4.7km/h 5.0mph /  8km/h 52% 0.00in /  0mm 220.0 W/m2
14:00 71.1 °F /  21.7 °C 52.5 °F /  11.4 °C 29.98in /  1015.1hPa North 2.0mph /  3.2km/h 9.0mph /  14.5km/h 52% 0.00in /  0mm 773.0 W/m2
14:06 70.9 °F /  21.6 °C 52.3 °F /  11.3 °C 29.98in /  1015.1hPa NE 0.9mph /  1.4km/h 2.0mph /  3.2km/h 52% 0.00in /  0mm 178.0 W/m2
14:12 70.5 °F /  21.4 °C 52.0 °F /  11.1 °C 29.98in /  1015.1hPa South 0.9mph /  1.4km/h 1.0mph /  1.6km/h 52% 0.00in /  0mm 183.0 W/m2
14:18 70.5 °F /  21.4 °C 50.9 °F /  10.5 °C 29.98in /  1015.1hPa Calm   2.0mph /  3.2km/h 50% 0.00in /  0mm 197.0 W/m2
14:24 70.2 °F /  21.2 °C 50.7 °F /  10.4 °C 29.97in /  1014.8hPa Calm   2.0mph /  3.2km/h 50% 0.00in /  0mm 128.0 W/m2
14:30 70.0 °F /  21.1 °C 50.5 °F /  10.3 °C 29.97in /  1014.8hPa Calm   1.0mph /  1.6km/h 50% 0.00in /  0mm 118.0 W/m2
14:32 69.8 °F /  21 °C 49.3 °F /  9.6 °C 29.97in /  1014.8hPa North 0.9mph /  1.4km/h 3.0mph /  4.8km/h 48% 0.00in /  0mm 118.0 W/m2
14:38 69.4 °F /  20.8 °C 48.9 °F /  9.4 °C 29.98in /  1015.1hPa NNW 2.9mph /  4.7km/h 3.0mph /  4.8km/h 48% 0.00in /  0mm 107.0 W/m2
14:44 69.3 °F /  20.7 °C 49.3 °F /  9.6 °C 29.98in /  1015.1hPa Calm   3.0mph /  4.8km/h 49% 0.00in /  0mm 100.0 W/m2
14:51 69.1 °F /  20.6 °C 49.6 °F /  9.8 °C 29.98in /  1015.1hPa NE 2.9mph /  4.7km/h 6.0mph /  9.7km/h 50% 0.00in /  0mm 107.0 W/m2
14:57 68.7 °F /  20.4 °C 49.3 °F /  9.6 °C 29.98in /  1015.1hPa NNE 2.9mph /  4.7km/h 6.0mph /  9.7km/h 50% 0.00in /  0mm 109.0 W/m2
15:03 68.5 °F /  20.3 °C 50.2 °F /  10.1 °C 29.98in /  1015.1hPa North 0.9mph /  1.4km/h 3.0mph /  4.8km/h 52% 0.00in /  0mm 102.0 W/m2
15:09 68.4 °F /  20.2 °C 50.0 °F /  10 °C 29.98in /  1015.1hPa Calm   4.0mph /  6.4km/h 52% 0.00in /  0mm 77.0 W/m2
15:15 68.4 °F /  20.2 °C 49.5 °F /  9.7 °C 29.98in /  1015.1hPa NNW 2.9mph /  4.7km/h 7.0mph /  11.3km/h 51% 0.00in /  0mm 67.0 W/m2
15:21 67.8 °F /  19.9 °C 49.6 °F /  9.8 °C 29.98in /  1015.1hPa NNE 2.9mph /  4.7km/h 6.0mph /  9.7km/h 52% 0.00in /  0mm 56.0 W/m2
15:27 67.6 °F /  19.8 °C 49.8 °F /  9.9 °C 29.98in /  1015.1hPa NNE 0.9mph /  1.4km/h 3.0mph /  4.8km/h 53% 0.00in /  0mm 42.0 W/m2
15:34 67.5 °F /  19.7 °C 49.8 °F /  9.9 °C 29.98in /  1015.1hPa NW 0.9mph /  1.4km/h 4.0mph /  6.4km/h 53% 0.00in /  0mm 37.0 W/m2
15:40 67.3 °F /  19.6 °C 50.5 °F /  10.3 °C 29.98in /  1015.1hPa NNE 0.9mph /  1.4km/h 2.0mph /  3.2km/h 55% 0.00in /  0mm 33.0 W/m2
15:46 66.9 °F /  19.4 °C 50.2 °F /  10.1 °C 29.98in /  1015.1hPa North 2.0mph /  3.2km/h 2.0mph /  3.2km/h 55% 0.00in /  0mm 30.0 W/m2
15:52 66.7 °F /  19.3 °C 50.5 °F /  10.3 °C 29.98in /  1015.1hPa NNE 2.0mph /  3.2km/h 2.0mph /  3.2km/h 56% 0.00in /  0mm 26.0 W/m2
15:58 66.7 °F /  19.3 °C 50.0 °F /  10 °C 29.98in /  1015.1hPa NE 0.9mph /  1.4km/h 2.0mph /  3.2km/h 55% 0.00in /  0mm 21.0 W/m2
16:04 66.6 °F /  19.2 °C 49.8 °F /  9.9 °C 29.98in /  1015.1hPa Calm     55% 0.00in /  0mm 21.0 W/m2
16:10 66.4 °F /  19.1 °C 50.7 °F /  10.4 °C 29.98in /  1015.1hPa Calm   1.0mph /  1.6km/h 57% 0.00in /  0mm 18.0 W/m2
16:16 66.4 °F /  19.1 °C 50.7 °F /  10.4 °C 29.98in /  1015.1hPa Calm     57% 0.00in /  0mm 16.0 W/m2
16:22 66.0 °F /  18.9 °C 49.5 °F /  9.7 °C 29.99in /  1015.5hPa Calm   1.0mph /  1.6km/h 55% 0.00in /  0mm 14.0 W/m2
16:28 66.0 °F /  18.9 °C 49.8 °F /  9.9 °C 29.98in /  1015.1hPa ENE 2.0mph /  3.2km/h 2.0mph /  3.2km/h 56% 0.00in /  0mm 14.0 W/m2
16:35 65.8 °F /  18.8 °C 49.6 °F /  9.8 °C 29.99in /  1015.5hPa Calm   2.0mph /  3.2km/h 56% 0.00in /  0mm 12.0 W/m2
16:41 65.7 °F /  18.7 °C 49.5 °F /  9.7 °C 29.99in /  1015.5hPa Calm   1.0mph /  1.6km/h 56% 0.00in /  0mm 12.0 W/m2
16:47 65.7 °F /  18.7 °C 49.1 °F /  9.5 °C 29.98in /  1015.1hPa Calm     55% 0.00in /  0mm 11.0 W/m2
16:53 65.5 °F /  18.6 °C 48.4 °F /  9.1 °C 29.99in /  1015.5hPa Calm   3.0mph /  4.8km/h 54% 0.00in /  0mm 12.0 W/m2
16:59 65.5 °F /  18.6 °C 48.9 °F /  9.4 °C 29.99in /  1015.5hPa Calm   1.0mph /  1.6km/h 55% 0.00in /  0mm 11.0 W/m2
17:05 65.3 °F /  18.5 °C 49.6 °F /  9.8 °C 29.99in /  1015.5hPa Calm   1.0mph /  1.6km/h 57% 0.00in /  0mm 11.0 W/m2
17:11 65.1 °F /  18.4 °C 50.4 °F /  10.2 °C 29.99in /  1015.5hPa SE 0.9mph /  1.4km/h 1.0mph /  1.6km/h 59% 0.00in /  0mm 11.0 W/m2
17:17 65.1 °F /  18.4 °C 50.9 °F /  10.5 °C 29.99in /  1015.5hPa SE 2.0mph /  3.2km/h 2.0mph /  3.2km/h 60% 0.00in /  0mm 7.0 W/m2
17:23 64.9 °F /  18.3 °C 51.1 °F /  10.6 °C 29.99in /  1015.5hPa Calm   2.0mph /  3.2km/h 61% 0.00in /  0mm 5.0 W/m2
17:29 64.8 °F /  18.2 °C 51.4 °F /  10.8 °C 29.99in /  1015.5hPa Calm   1.0mph /  1.6km/h 62% 0.00in /  0mm 0.0 W/m2
17:35 64.6 °F /  18.1 °C 51.3 °F /  10.7 °C 29.99in /  1015.5hPa Calm     62% 0.00in /  0mm 0.0 W/m2
17:41 64.2 °F /  17.9 °C 51.8 °F /  11 °C 29.99in /  1015.5hPa Calm   1.0mph /  1.6km/h 64% 0.00in /  0mm 0.0 W/m2
17:47 63.9 °F /  17.7 °C 51.4 °F /  10.8 °C 30.00in /  1015.8hPa Calm   3.0mph /  4.8km/h 64% 0.00in /  0mm 0.0 W/m2
17:53 63.9 °F /  17.7 °C 51.1 °F /  10.6 °C 30.00in /  1015.8hPa Calm   1.0mph /  1.6km/h 63% 0.00in /  0mm 0.0 W/m2
17:59 63.7 °F /  17.6 °C 51.3 °F /  10.7 °C 30.00in /  1015.8hPa Calm     64% 0.00in /  0mm 0.0 W/m2
18:05 63.7 °F /  17.6 °C 51.3 °F /  10.7 °C 30.00in /  1015.8hPa Calm   3.0mph /  4.8km/h 64% 0.00in /  0mm 0.0 W/m2
18:11 63.5 °F /  17.5 °C 51.4 °F /  10.8 °C 30.00in /  1015.8hPa Calm   2.0mph /  3.2km/h 65% 0.00in /  0mm 0.0 W/m2
18:17 63.3 °F /  17.4 °C 51.4 °F /  10.8 °C 30.00in /  1015.8hPa Calm     65% 0.00in /  0mm 0.0 W/m2
18:23 63.3 °F /  17.4 °C 51.4 °F /  10.8 °C 30.00in /  1015.8hPa Calm     65% 0.00in /  0mm 0.0 W/m2
18:29 63.1 °F /  17.3 °C 51.6 °F /  10.9 °C 30.01in /  1016.1hPa Calm     66% 0.00in /  0mm 0.0 W/m2
18:35 63.1 °F /  17.3 °C 51.3 °F /  10.7 °C 30.01in /  1016.1hPa Calm     65% 0.00in /  0mm 0.0 W/m2
18:41 63.0 °F /  17.2 °C 50.5 °F /  10.3 °C 30.01in /  1016.1hPa Calm     64% 0.00in /  0mm 0.0 W/m2
18:47 62.8 °F /  17.1 °C 50.9 °F /  10.5 °C 30.01in /  1016.1hPa Calm     65% 0.00in /  0mm 0.0 W/m2
18:53 62.8 °F /  17.1 °C 50.9 °F /  10.5 °C 30.01in /  1016.1hPa Calm     65% 0.00in /  0mm 0.0 W/m2
18:59 62.8 °F /  17.1 °C 51.3 °F /  10.7 °C 30.01in /  1016.1hPa Calm     66% 0.00in /  0mm 0.0 W/m2
19:05 62.6 °F /  17 °C 51.4 °F /  10.8 °C 30.01in /  1016.1hPa Calm     67% 0.00in /  0mm 0.0 W/m2
19:11 62.4 °F /  16.9 °C 51.8 °F /  11 °C 30.01in /  1016.1hPa Calm     68% 0.00in /  0mm 0.0 W/m2
19:17 62.4 °F /  16.9 °C 52.2 °F /  11.2 °C 30.02in /  1016.5hPa Calm     69% 0.00in /  0mm 0.0 W/m2
19:23 62.2 °F /  16.8 °C 53.1 °F /  11.7 °C 30.02in /  1016.5hPa Calm   1.0mph /  1.6km/h 72% 0.00in /  0mm 0.0 W/m2
19:29 62.2 °F /  16.8 °C 53.1 °F /  11.7 °C 30.02in /  1016.5hPa SSE 4.0mph /  6.4km/h 5.0mph /  8km/h 72% 0.00in /  0mm 0.0 W/m2
19:35 62.1 °F /  16.7 °C 52.2 °F /  11.2 °C 30.02in /  1016.5hPa SE 2.0mph /  3.2km/h 4.0mph /  6.4km/h 70% 0.00in /  0mm 0.0 W/m2
19:41 61.9 °F /  16.6 °C 51.3 °F /  10.7 °C 30.03in /  1016.8hPa SE 2.9mph /  4.7km/h 5.0mph /  8km/h 68% 0.00in /  0mm 0.0 W/m2
19:47 62.1 °F /  16.7 °C 51.4 °F /  10.8 °C 30.03in /  1016.8hPa East 4.9mph /  7.9km/h 5.0mph /  8km/h 68% 0.00in /  0mm 0.0 W/m2
19:53 62.1 °F /  16.7 °C 51.8 °F /  11 °C 30.03in /  1016.8hPa ENE 0.9mph /  1.4km/h 3.0mph /  4.8km/h 69% 0.00in /  0mm 0.0 W/m2
19:59 62.1 °F /  16.7 °C 52.2 °F /  11.2 °C 30.03in /  1016.8hPa NE 0.9mph /  1.4km/h 1.0mph /  1.6km/h 70% 0.00in /  0mm 0.0 W/m2
20:05 61.9 °F /  16.6 °C 52.0 °F /  11.1 °C 30.03in /  1016.8hPa NE 2.0mph /  3.2km/h 5.0mph /  8km/h 70% 0.00in /  0mm 0.0 W/m2
20:11 61.7 °F /  16.5 °C 52.2 °F /  11.2 °C 30.04in /  1017.2hPa NE 0.9mph /  1.4km/h 5.0mph /  8km/h 71% 0.00in /  0mm 0.0 W/m2
20:17 61.5 °F /  16.4 °C 52.0 °F /  11.1 °C 30.04in /  1017.2hPa Calm   5.0mph /  8km/h 71% 0.00in /  0mm 0.0 W/m2
20:24 61.3 °F /  16.3 °C 52.2 °F /  11.2 °C 30.04in /  1017.2hPa ENE 4.0mph /  6.4km/h 4.0mph /  6.4km/h 72% 0.00in /  0mm 0.0 W/m2
20:29 61.2 °F /  16.2 °C 52.9 °F /  11.6 °C 30.04in /  1017.2hPa Calm     74% 0.00in /  0mm 0.0 W/m2
20:35 61.0 °F /  16.1 °C 53.1 °F /  11.7 °C 30.04in /  1017.2hPa East 6.0mph /  9.7km/h 6.0mph /  9.7km/h 75% 0.00in /  0mm 0.0 W/m2
20:41 60.6 °F /  15.9 °C 53.1 °F /  11.7 °C 30.04in /  1017.2hPa ENE 2.9mph /  4.7km/h 9.0mph /  14.5km/h 76% 0.00in /  0mm 0.0 W/m2
20:47 60.3 °F /  15.7 °C 53.1 °F /  11.7 °C 30.04in /  1017.2hPa ENE 8.1mph /  13km/h 8.1mph /  13km/h 77% 0.00in /  0mm 0.0 W/m2
20:53 59.7 °F /  15.4 °C 52.9 °F /  11.6 °C 30.04in /  1017.2hPa North 2.9mph /  4.7km/h 6.0mph /  9.7km/h 78% 0.00in /  0mm 0.0 W/m2
20:59 59.5 °F /  15.3 °C 53.1 °F /  11.7 °C 30.04in /  1017.2hPa East 0.9mph /  1.4km/h 11.0mph /  17.7km/h 79% 0.00in /  0mm 0.0 W/m2
21:05 59.2 °F /  15.1 °C 52.7 °F /  11.5 °C 30.04in /  1017.2hPa East 4.0mph /  6.4km/h 7.0mph /  11.3km/h 79% 0.00in /  0mm 0.0 W/m2
21:11 58.8 °F /  14.9 °C 52.3 °F /  11.3 °C 30.04in /  1017.2hPa NE 4.9mph /  7.9km/h 15.0mph /  24.1km/h 79% 0.00in /  0mm 0.0 W/m2
21:17 58.5 °F /  14.7 °C 52.3 °F /  11.3 °C 30.04in /  1017.2hPa East 8.9mph /  14.3km/h 10.0mph /  16.1km/h 80% 0.00in /  0mm 0.0 W/m2
21:23 58.3 °F /  14.6 °C 52.2 °F /  11.2 °C 30.04in /  1017.2hPa East 11.0mph /  17.7km/h 11.0mph /  17.7km/h 80% 0.00in /  0mm 0.0 W/m2
21:29 58.1 °F /  14.5 °C 52.0 °F /  11.1 °C 30.04in /  1017.2hPa ENE 8.9mph /  14.3km/h 9.0mph /  14.5km/h 80% 0.00in /  0mm 0.0 W/m2
21:35 57.9 °F /  14.4 °C 52.2 °F /  11.2 °C 30.04in /  1017.2hPa ENE 4.0mph /  6.4km/h 6.0mph /  9.7km/h 81% 0.00in /  0mm 0.0 W/m2
21:41 57.7 °F /  14.3 °C 52.0 °F /  11.1 °C 30.04in /  1017.2hPa ENE 2.0mph /  3.2km/h 7.0mph /  11.3km/h 81% 0.00in /  0mm 0.0 W/m2
21:47 57.6 °F /  14.2 °C 52.2 °F /  11.2 °C 30.04in /  1017.2hPa Calm   9.0mph /  14.5km/h 82% 0.00in /  0mm 0.0 W/m2
21:53 57.4 °F /  14.1 °C 52.0 °F /  11.1 °C 30.04in /  1017.2hPa NE 2.9mph /  4.7km/h 11.0mph /  17.7km/h 82% 0.00in /  0mm 0.0 W/m2
21:59 57.0 °F /  13.9 °C 52.0 °F /  11.1 °C 30.04in /  1017.2hPa NE 6.0mph /  9.7km/h 6.0mph /  9.7km/h 83% 0.00in /  0mm 0.0 W/m2
22:05 56.8 °F /  13.8 °C 51.8 °F /  11 °C 30.04in /  1017.2hPa NE 4.0mph /  6.4km/h 6.0mph /  9.7km/h 83% 0.00in /  0mm 0.0 W/m2
22:11 56.7 °F /  13.7 °C 51.8 °F /  11 °C 30.04in /  1017.2hPa Calm   4.0mph /  6.4km/h 84% 0.00in /  0mm 0.0 W/m2
22:17 56.5 °F /  13.6 °C 51.6 °F /  10.9 °C 30.04in /  1017.2hPa ENE 2.0mph /  3.2km/h 5.0mph /  8km/h 84% 0.00in /  0mm 0.0 W/m2
22:23 56.3 °F /  13.5 °C 51.4 °F /  10.8 °C 30.04in /  1017.2hPa Calm   10.0mph /  16.1km/h 84% 0.00in /  0mm 0.0 W/m2
22:29 56.1 °F /  13.4 °C 51.6 °F /  10.9 °C 30.04in /  1017.2hPa ENE 4.0mph /  6.4km/h 5.0mph /  8km/h 85% 0.00in /  0mm 0.0 W/m2
22:35 55.9 °F /  13.3 °C 51.4 °F /  10.8 °C 30.04in /  1017.2hPa ENE 0.9mph /  1.4km/h 6.0mph /  9.7km/h 85% 0.00in /  0mm 0.0 W/m2
22:41 55.8 °F /  13.2 °C 51.6 °F /  10.9 °C 30.04in /  1017.2hPa NE 2.0mph /  3.2km/h 5.0mph /  8km/h 86% 0.00in /  0mm 0.0 W/m2
22:47 55.8 °F /  13.2 °C 51.6 °F /  10.9 °C 30.04in /  1017.2hPa ESE 2.0mph /  3.2km/h 5.0mph /  8km/h 86% 0.00in /  0mm 0.0 W/m2
22:53 55.6 °F /  13.1 °C 51.4 °F /  10.8 °C 30.05in /  1017.5hPa NE 6.0mph /  9.7km/h 8.0mph /  12.9km/h 86% 0.00in /  0mm 0.0 W/m2
22:59 55.4 °F /  13 °C 51.3 °F /  10.7 °C 30.05in /  1017.5hPa NE 4.0mph /  6.4km/h 4.0mph /  6.4km/h 86% 0.00in /  0mm 0.0 W/m2
23:05 55.2 °F /  12.9 °C 51.1 °F /  10.6 °C 30.05in /  1017.5hPa Calm   2.0mph /  3.2km/h 86% 0.00in /  0mm 0.0 W/m2
23:11 55.2 °F /  12.9 °C 51.4 °F /  10.8 °C 30.05in /  1017.5hPa ENE 6.0mph /  9.7km/h 12.0mph /  19.3km/h 87% 0.00in /  0mm 0.0 W/m2
23:18 55.0 °F /  12.8 °C 51.3 °F /  10.7 °C 30.05in /  1017.5hPa ENE 4.9mph /  7.9km/h 6.0mph /  9.7km/h 87% 0.00in /  0mm 0.0 W/m2
23:24 55.0 °F /  12.8 °C 51.3 °F /  10.7 °C 30.05in /  1017.5hPa NW 0.9mph /  1.4km/h 7.0mph /  11.3km/h 87% 0.00in /  0mm 0.0 W/m2
23:30 55.0 °F /  12.8 °C 51.3 °F /  10.7 °C 30.05in /  1017.5hPa SE 2.9mph /  4.7km/h 11.0mph /  17.7km/h 87% 0.00in /  0mm 0.0 W/m2
23:36 55.2 °F /  12.9 °C 51.4 °F /  10.8 °C 30.05in /  1017.5hPa NNE 4.0mph /  6.4km/h 9.0mph /  14.5km/h 87% 0.00in /  0mm 0.0 W/m2
23:42 55.2 °F /  12.9 °C 51.4 °F /  10.8 °C 30.05in /  1017.5hPa NE 2.0mph /  3.2km/h 7.0mph /  11.3km/h 87% 0.00in /  0mm 0.0 W/m2
23:48 55.2 °F /  12.9 °C 51.4 °F /  10.8 °C 30.05in /  1017.5hPa Calm   5.0mph /  8km/h 87% 0.00in /  0mm 0.0 W/m2
23:54 55.2 °F /  12.9 °C 51.4 °F /  10.8 °C 30.05in /  1017.5hPa SE 2.9mph /  4.7km/h 6.0mph /  9.7km/h 87% 0.00in /  0mm 0.0 W/m2
Olympia, Windhoek, Namibia
Compliments of Weather Underground - 3 mb